Flag for Seychelles Weather past 2 weeks in Victoria, Seychelles

Now
79 °F

Passing clouds.


Feels Like: 82 °F
Forecast: 76 / 81 °F
Wind: 6 mph from Southeast

Location: National Airport

Current Time: Aug 27, 2015 at 11:53:27 PM

Latest Report: Aug 27, 2015 at 11:00 PM


Visibility: N/A

Pressure: 29.95 "Hg

Humidity: 89%

Dew point: 75 °F

Location of VictoriaLocation

Historic Weather in Victoria — Graph

°F

Victoria temperature yesterday

Maximum temperature yesterday: 84 °F (at 10:00 AM)
Minimum temperature yesterday: 77 °F (at 6:00 AM)
Average temperature yesterday: 82 °F

Past Weeks' High & Low Weather Summary

 TemperatureHumidityPressure
High86 °F (Aug 13, 2:00 PM)94% (Aug 14, 6:00 AM)29.98 "Hg (Aug 14, 6:00 AM)
Low77 °F (Aug 14, 6:00 AM)62% (Aug 16, 10:00 AM)29.80 "Hg (Aug 18, 3:00 PM)
Average81 °F77%29.90 "Hg
* Reported Aug 12 10:00 PM — Aug 27 10:00 PM, Victoria, Weather by CustomWeather, © 2015

Note: Actual official high and low records may vary slightly from our data, if they occured in-between our weather recording intervals... More about our weather records

Advertising

Victoria weather history for previous 24 hours

 ConditionsComfort  
Time TempWeatherWind HumidityBarometerVisibility
10:00 PM
Thu, Aug 27
79 °FPassing clouds.13 mph94%29.92 "HgN/A
9:00 PM81 °FPassing clouds.10 mph84%29.92 "HgN/A
8:00 PM81 °FPassing clouds.10 mph84%29.89 "HgN/A
7:00 PM81 °FSprinkles. Passing clouds.12 mph84%29.89 "HgN/A
6:00 PM79 °FScattered clouds.6 mph94%29.86 "HgN/A
5:00 PM79 °FScattered showers. Partly sunny.7 mph89%29.83 "HgN/A
4:00 PM82 °FPartly sunny.10 mph79%29.83 "HgN/A
3:00 PM84 °FScattered clouds.12 mph74%29.83 "HgN/A
2:00 PM86 °FScattered clouds.16 mph70%29.86 "HgN/A
1:00 PM86 °FScattered clouds.14 mph70%29.89 "HgN/A
12:00 PM84 °FScattered clouds.17 mph74%29.89 "HgN/A
11:00 AM84 °FPartly sunny.20 mph74%29.92 "HgN/A
10:00 AM84 °FPartly sunny.18 mph74%29.92 "HgN/A
9:00 AM82 °FBroken clouds.17 mph74%29.92 "HgN/A
8:00 AM82 °FBroken clouds.17 mph74%29.92 "HgN/A
7:00 AM82 °FBroken clouds.15 mph74%29.89 "HgN/A
6:00 AM81 °FPassing clouds.16 mph79%29.89 "HgN/A
5:00 AM81 °FPassing clouds.17 mph79%29.86 "HgN/A
4:00 AM81 °FPassing clouds.16 mph79%29.86 "HgN/A
3:00 AM81 °FPassing clouds.16 mph74%29.86 "HgN/A
2:00 AM81 °FPassing clouds.17 mph79%29.86 "HgN/A
1:00 AM81 °FPassing clouds.16 mph79%29.89 "HgN/A
12:00 AM81 °FPassing clouds.15 mph79%29.92 "HgN/A
11:00 PM
Wed, Aug 26
81 °FPassing clouds.9 mph79%29.92 "HgN/A
Weather by CustomWeather, © 2015

See weather overviewHow to use our weather pages